Time,TemperatureF,DewpointF,PressureIn,WindDirection,WindDirectionDegrees,WindSpeedMPH,WindSpeedGustMPH,Humidity,HourlyPrecipIn,Conditions,Clouds,dailyrainin,SolarRadiationWatts/m^2,SoftwareType,DateUTC
2013-08-15 00:03:00,65.7,60.7,30.04,North,360,4.0,7.0,84,0.00,,,0.05,0,HR-IXPWINDi_r2_v1.2.,2013-08-15 05:03:00,
2013-08-15 00:08:00,65.8,60.8,30.04,North,360,3.0,7.0,84,0.00,,,0.05,0,HR-IXPWINDi_r2_v1.2.,2013-08-15 05:08:00,
2013-08-15 00:13:00,65.9,60.9,30.04,North,360,2.0,6.0,84,0.00,,,0.05,0,HR-IXPWINDi_r2_v1.2.,2013-08-15 05:13:00,
2013-08-15 00:19:00,65.9,60.9,30.04,North,360,5.0,6.0,84,0.00,,,0.00,0,HR-IXPWINDi_r2_v1.2.,2013-08-15 05:19:00,
2013-08-15 00:24:00,65.8,60.8,30.04,East,93,2.0,7.0,84,0.00,,,0.00,0,HR-IXPWINDi_r2_v1.2.,2013-08-15 05:24:00,
2013-08-15 00:29:00,65.7,60.7,30.03,North,360,4.0,7.0,84,0.00,,,0.00,0,HR-IXPWINDi_r2_v1.2.,2013-08-15 05:29:00,
2013-08-15 00:34:00,65.5,60.5,30.03,North,360,4.0,7.0,84,0.00,,,0.00,0,HR-IXPWINDi_r2_v1.2.,2013-08-15 05:34:00,
2013-08-15 00:39:00,65.5,60.5,30.03,ENE,76,8.0,8.0,84,0.00,,,0.00,0,HR-IXPWINDi_r2_v1.2.,2013-08-15 05:39:00,
2013-08-15 00:44:00,65.4,60.4,30.03,North,360,3.0,10.0,84,0.00,,,0.00,0,HR-IXPWINDi_r2_v1.2.,2013-08-15 05:44:00,
2013-08-15 00:49:00,65.4,60.0,30.03,North,360,1.0,10.0,83,0.00,,,0.00,0,HR-IXPWINDi_r2_v1.2.,2013-08-15 05:49:00,
2013-08-15 00:54:00,65.2,59.8,30.03,SSE,150,3.0,7.0,83,0.00,,,0.00,0,HR-IXPWINDi_r2_v1.2.,2013-08-15 05:54:00,
2013-08-15 01:00:00,64.9,59.5,30.03,North,360,2.0,8.0,83,0.00,,,0.00,0,HR-IXPWINDi_r2_v1.2.,2013-08-15 06:00:00,
2013-08-15 01:05:00,64.7,59.7,30.03,North,360,2.0,8.0,84,0.00,,,0.00,0,HR-IXPWINDi_r2_v1.2.,2013-08-15 06:05:00,
2013-08-15 01:10:00,64.5,59.8,30.03,SE,132,3.0,8.0,85,0.00,,,0.00,0,HR-IXPWINDi_r2_v1.2.,2013-08-15 06:10:00,
2013-08-15 01:15:00,64.4,59.7,30.03,SSE,159,5.0,8.0,85,0.00,,,0.00,0,HR-IXPWINDi_r2_v1.2.,2013-08-15 06:15:00,
2013-08-15 01:21:00,64.3,59.6,30.03,SSE,152,0.0,8.0,85,0.00,,,0.00,0,HR-IXPWINDi_r2_v1.2.,2013-08-15 06:21:00,
2013-08-15 01:26:00,64.2,59.9,30.03,North,360,4.0,8.0,86,0.00,,,0.00,0,HR-IXPWINDi_r2_v1.2.,2013-08-15 06:26:00,
2013-08-15 01:31:00,64.1,59.8,30.02,North,360,4.0,8.0,86,0.00,,,0.00,0,HR-IXPWINDi_r2_v1.2.,2013-08-15 06:31:00,
2013-08-15 01:36:00,64.0,59.7,30.02,North,360,3.0,8.0,86,0.00,,,0.00,0,HR-IXPWINDi_r2_v1.2.,2013-08-15 06:36:00,
2013-08-15 01:42:00,64.0,59.7,30.02,East,98,5.0,7.0,86,0.00,,,0.00,0,HR-IXPWINDi_r2_v1.2.,2013-08-15 06:42:00,
2013-08-15 01:47:00,63.8,59.5,30.01,North,360,5.0,7.0,86,0.00,,,0.00,0,HR-IXPWINDi_r2_v1.2.,2013-08-15 06:47:00,
2013-08-15 01:52:00,63.7,59.4,30.01,East,93,5.0,7.0,86,0.00,,,0.00,0,HR-IXPWINDi_r2_v1.2.,2013-08-15 06:52:00,
2013-08-15 01:57:00,63.7,59.0,30.01,East,84,5.0,7.0,85,0.00,,,0.00,0,HR-IXPWINDi_r2_v1.2.,2013-08-15 06:57:00,
2013-08-15 02:02:00,63.6,59.3,30.01,North,360,4.0,7.0,86,0.00,,,0.00,0,HR-IXPWINDi_r2_v1.2.,2013-08-15 07:02:00,
2013-08-15 02:07:00,63.6,59.3,30.01,ENE,77,3.0,7.0,86,0.00,,,0.00,0,HR-IXPWINDi_r2_v1.2.,2013-08-15 07:07:00,
2013-08-15 02:13:00,63.5,59.2,30.01,North,360,2.0,7.0,86,0.00,,,0.00,0,HR-IXPWINDi_r2_v1.2.,2013-08-15 07:13:00,
2013-08-15 02:18:00,63.5,59.2,30.01,North,360,2.0,7.0,86,0.00,,,0.00,0,HR-IXPWINDi_r2_v1.2.,2013-08-15 07:18:00,
2013-08-15 02:23:00,63.4,59.1,30.01,NE,40,3.0,6.0,86,0.00,,,0.00,0,HR-IXPWINDi_r2_v1.2.,2013-08-15 07:23:00,
2013-08-15 02:28:00,63.0,59.0,30.01,North,360,5.0,6.0,87,0.00,,,0.00,0,HR-IXPWINDi_r2_v1.2.,2013-08-15 07:28:00,
2013-08-15 02:33:00,62.7,58.7,30.01,NE,42,2.0,8.0,87,0.00,,,0.00,0,HR-IXPWINDi_r2_v1.2.,2013-08-15 07:33:00,
2013-08-15 02:38:00,62.8,58.8,30.01,SSE,150,5.0,9.0,87,0.00,,,0.00,0,HR-IXPWINDi_r2_v1.2.,2013-08-15 07:38:00,
2013-08-15 02:43:00,62.8,58.8,30.01,ENE,59,4.0,9.0,87,0.00,,,0.01,0,HR-IXPWINDi_r2_v1.2.,2013-08-15 07:43:00,
2013-08-15 02:48:00,62.6,58.6,30.01,NE,46,5.0,9.0,87,0.29,,,0.03,0,HR-IXPWINDi_r2_v1.2.,2013-08-15 07:48:00,
2013-08-15 02:54:00,62.3,58.6,30.01,ENE,78,4.0,9.0,88,0.26,,,0.04,0,HR-IXPWINDi_r2_v1.2.,2013-08-15 07:54:00,
2013-08-15 02:59:00,62.1,58.4,30.02,North,360,6.0,10.0,88,0.36,,,0.07,0,HR-IXPWINDi_r2_v1.2.,2013-08-15 07:59:00,
2013-08-15 03:04:00,61.9,58.6,30.01,North,360,6.0,10.0,89,0.16,,,0.08,0,HR-IXPWINDi_r2_v1.2.,2013-08-15 08:04:00,
2013-08-15 03:09:00,61.8,58.8,30.01,East,90,9.0,10.0,90,0.15,,,0.09,0,HR-IXPWINDi_r2_v1.2.,2013-08-15 08:09:00,
2013-08-15 03:14:00,61.8,58.8,30.01,North,360,6.0,11.0,90,0.06,,,0.09,0,HR-IXPWINDi_r2_v1.2.,2013-08-15 08:14:00,
2013-08-15 03:20:00,61.7,58.7,30.01,East,100,3.0,11.0,90,0.31,,,0.11,0,HR-IXPWINDi_r2_v1.2.,2013-08-15 08:20:00,
2013-08-15 03:25:00,61.6,58.9,30.00,East,101,6.0,11.0,91,0.31,,,0.14,0,HR-IXPWINDi_r2_v1.2.,2013-08-15 08:25:00,
2013-08-15 03:30:00,61.5,58.8,30.00,ESE,115,7.0,11.0,91,0.48,,,0.17,0,HR-IXPWINDi_r2_v1.2.,2013-08-15 08:30:00,
2013-08-15 03:35:00,61.5,59.1,30.01,SE,125,5.0,9.0,92,0.22,,,0.19,0,HR-IXPWINDi_r2_v1.2.,2013-08-15 08:35:00,
2013-08-15 03:40:00,61.7,59.3,30.01,East,96,3.0,9.0,92,0.55,,,0.22,0,HR-IXPWINDi_r2_v1.2.,2013-08-15 08:40:00,
2013-08-15 03:46:00,61.6,58.9,30.01,ENE,57,3.0,9.0,91,0.24,,,0.24,0,HR-IXPWINDi_r2_v1.2.,2013-08-15 08:46:00,
2013-08-15 03:51:00,61.5,59.1,30.02,North,360,1.0,9.0,92,0.22,,,0.26,0,HR-IXPWINDi_r2_v1.2.,2013-08-15 08:51:00,
2013-08-15 03:56:00,61.4,59.0,30.02,NNE,19,1.0,4.0,92,0.19,,,0.28,0,HR-IXPWINDi_r2_v1.2.,2013-08-15 08:56:00,
2013-08-15 04:01:00,61.2,58.8,30.03,North,360,1.0,3.0,92,0.23,,,0.31,0,HR-IXPWINDi_r2_v1.2.,2013-08-15 09:01:00,
2013-08-15 04:06:00,61.0,58.6,30.03,North,360,0.0,4.0,92,1.28,,,0.38,0,HR-IXPWINDi_r2_v1.2.,2013-08-15 09:06:00,
2013-08-15 04:11:00,60.9,58.5,30.03,NE,45,1.0,4.0,92,0.50,,,0.45,0,HR-IXPWINDi_r2_v1.2.,2013-08-15 09:11:00,
2013-08-15 04:16:00,60.7,58.6,30.03,NE,55,3.0,5.0,93,0.22,,,0.49,0,HR-IXPWINDi_r2_v1.2.,2013-08-15 09:16:00,
2013-08-15 04:22:00,60.5,58.4,30.03,ENE,57,2.0,8.0,93,0.24,,,0.51,0,HR-IXPWINDi_r2_v1.2.,2013-08-15 09:22:00,
2013-08-15 04:27:00,60.6,58.5,30.03,NE,46,3.0,8.0,93,0.08,,,0.51,0,HR-IXPWINDi_r2_v1.2.,2013-08-15 09:27:00,
2013-08-15 04:32:00,60.6,58.8,30.03,North,360,2.0,7.0,94,0.05,,,0.51,0,HR-IXPWINDi_r2_v1.2.,2013-08-15 09:32:00,
2013-08-15 04:37:00,60.6,58.8,30.03,East,93,2.0,5.0,94,0.00,,,0.51,0,HR-IXPWINDi_r2_v1.2.,2013-08-15 09:37:00,
2013-08-15 04:42:00,60.7,58.9,30.02,North,360,4.0,6.0,94,0.59,,,0.54,0,HR-IXPWINDi_r2_v1.2.,2013-08-15 09:42:00,
2013-08-15 04:48:00,60.5,58.7,30.02,North,360,4.0,7.0,94,0.27,,,0.57,0,HR-IXPWINDi_r2_v1.2.,2013-08-15 09:48:00,
2013-08-15 04:53:00,60.4,58.6,30.03,ESE,114,3.0,7.0,94,0.14,,,0.58,0,HR-IXPWINDi_r2_v1.2.,2013-08-15 09:53:00,
2013-08-15 04:58:00,60.3,58.5,30.03,North,360,5.0,7.0,94,0.33,,,0.60,0,HR-IXPWINDi_r2_v1.2.,2013-08-15 09:58:00,
2013-08-15 05:03:00,60.3,58.5,30.03,ESE,103,5.0,7.0,94,0.17,,,0.62,0,HR-IXPWINDi_r2_v1.2.,2013-08-15 10:03:00,
2013-08-15 05:08:00,60.2,58.4,30.03,ENE,70,7.0,8.0,94,0.09,,,0.63,0,HR-IXPWINDi_r2_v1.2.,2013-08-15 10:08:00,
2013-08-15 05:14:00,60.1,58.3,30.02,NE,55,4.0,8.0,94,0.16,,,0.65,0,HR-IXPWINDi_r2_v1.2.,2013-08-15 10:14:00,
2013-08-15 05:19:00,60.1,58.3,30.02,North,360,4.0,9.0,94,0.10,,,0.65,0,HR-IXPWINDi_r2_v1.2.,2013-08-15 10:19:00,
2013-08-15 05:24:00,60.1,58.6,30.02,North,360,4.0,9.0,95,0.06,,,0.65,0,HR-IXPWINDi_r2_v1.2.,2013-08-15 10:24:00,
2013-08-15 05:29:00,60.1,58.6,30.02,North,360,3.0,8.0,95,0.04,,,0.65,0,HR-IXPWINDi_r2_v1.2.,2013-08-15 10:29:00,
2013-08-15 05:34:00,60.2,58.7,30.02,North,360,4.0,9.0,95,0.00,,,0.65,0,HR-IXPWINDi_r2_v1.2.,2013-08-15 10:34:00,
2013-08-15 05:39:00,60.2,58.7,30.02,North,360,3.0,9.0,95,0.00,,,0.65,0,HR-IXPWINDi_r2_v1.2.,2013-08-15 10:39:00,
2013-08-15 05:44:00,60.1,58.6,30.01,North,360,8.0,9.0,95,0.00,,,0.65,0,HR-IXPWINDi_r2_v1.2.,2013-08-15 10:44:00,
2013-08-15 05:50:00,60.1,58.3,30.01,North,360,5.0,11.0,94,0.00,,,0.65,0,HR-IXPWINDi_r2_v1.2.,2013-08-15 10:50:00,
2013-08-15 05:55:00,60.0,58.2,30.01,ESE,102,4.0,13.0,94,0.00,,,0.65,0,HR-IXPWINDi_r2_v1.2.,2013-08-15 10:55:00,
2013-08-15 06:00:00,60.1,58.3,30.01,ESE,117,7.0,13.0,94,0.00,,,0.65,0,HR-IXPWINDi_r2_v1.2.,2013-08-15 11:00:00,
2013-08-15 06:05:00,60.0,58.2,30.01,East,92,9.0,13.0,94,0.00,,,0.65,0,HR-IXPWINDi_r2_v1.2.,2013-08-15 11:05:00,
2013-08-15 06:10:00,59.9,58.1,30.01,SE,140,5.0,9.0,94,0.00,,,0.65,0,HR-IXPWINDi_r2_v1.2.,2013-08-15 11:10:00,
2013-08-15 06:15:00,60.0,58.2,30.02,East,89,5.0,9.0,94,0.00,,,0.65,0,HR-IXPWINDi_r2_v1.2.,2013-08-15 11:15:00,
2013-08-15 06:20:00,60.0,58.2,30.02,ESE,111,2.0,11.0,94,0.00,,,0.65,0,HR-IXPWINDi_r2_v1.2.,2013-08-15 11:20:00,
2013-08-15 06:26:00,60.0,58.2,30.02,North,360,5.0,11.0,94,0.00,,,0.65,0,HR-IXPWINDi_r2_v1.2.,2013-08-15 11:26:00,
2013-08-15 06:31:00,59.9,58.1,30.02,ESE,115,7.0,10.0,94,0.00,,,0.65,0,HR-IXPWINDi_r2_v1.2.,2013-08-15 11:31:00,
2013-08-15 06:36:00,59.9,58.1,30.02,ESE,109,4.0,10.0,94,0.00,,,0.65,0,HR-IXPWINDi_r2_v1.2.,2013-08-15 11:36:00,
2013-08-15 06:41:00,59.9,58.1,30.02,SSE,152,6.0,10.0,94,0.00,,,0.65,0,HR-IXPWINDi_r2_v1.2.,2013-08-15 11:41:00,
2013-08-15 06:46:00,59.9,58.1,30.02,North,360,5.0,11.0,94,0.00,,,0.65,0,HR-IXPWINDi_r2_v1.2.,2013-08-15 11:46:00,
2013-08-15 06:51:00,59.9,58.1,30.02,North,360,6.0,11.0,94,0.00,,,0.65,0,HR-IXPWINDi_r2_v1.2.,2013-08-15 11:51:00,
2013-08-15 06:57:00,59.9,58.1,30.02,ESE,108,4.0,11.0,94,0.00,,,0.65,0,HR-IXPWINDi_r2_v1.2.,2013-08-15 11:57:00,
2013-08-15 07:02:00,60.0,58.2,30.03,East,87,2.0,9.0,94,0.00,,,0.65,0,HR-IXPWINDi_r2_v1.2.,2013-08-15 12:02:00,
2013-08-15 07:07:00,60.0,58.2,30.02,North,360,4.0,8.0,94,0.00,,,0.66,0,HR-IXPWINDi_r2_v1.2.,2013-08-15 12:07:00,
2013-08-15 07:12:00,60.0,58.2,30.02,East,82,7.0,9.0,94,0.00,,,0.66,0,HR-IXPWINDi_r2_v1.2.,2013-08-15 12:12:00,
2013-08-15 07:17:00,59.9,58.1,30.01,East,93,8.0,9.0,94,0.05,,,0.67,5,HR-IXPWINDi_r2_v1.2.,2013-08-15 12:17:00,
2013-08-15 07:22:00,59.9,58.1,30.02,SE,134,13.0,13.0,94,0.11,,,0.68,7,HR-IXPWINDi_r2_v1.2.,2013-08-15 12:22:00,
2013-08-15 07:27:00,59.9,58.1,30.02,East,86,3.0,13.0,94,0.06,,,0.68,12,HR-IXPWINDi_r2_v1.2.,2013-08-15 12:27:00,
2013-08-15 07:32:00,59.9,58.1,30.03,East,94,2.0,13.0,94,0.04,,,0.68,11,HR-IXPWINDi_r2_v1.2.,2013-08-15 12:32:00,
2013-08-15 07:38:00,59.9,58.1,30.03,North,360,4.0,8.0,94,0.00,,,0.68,11,HR-IXPWINDi_r2_v1.2.,2013-08-15 12:38:00,
2013-08-15 07:43:00,60.0,58.2,30.03,ESE,103,4.0,8.0,94,0.00,,,0.68,14,HR-IXPWINDi_r2_v1.2.,2013-08-15 12:43:00,
2013-08-15 07:48:00,60.0,58.2,30.03,ESE,107,5.0,7.0,94,0.00,,,0.68,16,HR-IXPWINDi_r2_v1.2.,2013-08-15 12:48:00,
2013-08-15 07:53:00,60.0,58.2,30.03,North,360,4.0,8.0,94,0.00,,,0.68,11,HR-IXPWINDi_r2_v1.2.,2013-08-15 12:53:00,
2013-08-15 07:58:00,59.9,58.1,30.04,North,360,3.0,8.0,94,0.00,,,0.68,7,HR-IXPWINDi_r2_v1.2.,2013-08-15 12:58:00,
2013-08-15 08:04:00,59.9,58.1,30.04,ESE,109,4.0,8.0,94,0.00,,,0.68,9,HR-IXPWINDi_r2_v1.2.,2013-08-15 13:04:00,
2013-08-15 08:09:00,59.9,58.1,30.04,North,360,4.0,7.0,94,0.00,,,0.68,14,HR-IXPWINDi_r2_v1.2.,2013-08-15 13:09:00,
2013-08-15 08:14:00,59.9,58.1,30.04,East,98,6.0,8.0,94,0.00,,,0.68,21,HR-IXPWINDi_r2_v1.2.,2013-08-15 13:14:00,
2013-08-15 08:19:00,59.9,58.1,30.03,East,99,6.0,8.0,94,0.00,,,0.68,21,HR-IXPWINDi_r2_v1.2.,2013-08-15 13:19:00,
2013-08-15 08:24:00,59.9,58.1,30.03,North,360,4.0,8.0,94,0.00,,,0.68,28,HR-IXPWINDi_r2_v1.2.,2013-08-15 13:24:00,
2013-08-15 08:29:00,59.8,58.0,30.03,North,360,6.0,8.0,94,0.00,,,0.68,30,HR-IXPWINDi_r2_v1.2.,2013-08-15 13:29:00,
2013-08-15 08:35:00,59.8,58.0,30.04,North,360,5.0,8.0,94,0.00,,,0.68,39,HR-IXPWINDi_r2_v1.2.,2013-08-15 13:35:00,
2013-08-15 08:40:00,59.8,58.0,30.04,North,360,4.0,9.0,94,0.00,,,0.68,51,HR-IXPWINDi_r2_v1.2.,2013-08-15 13:40:00,
2013-08-15 08:45:00,59.9,58.1,30.04,North,360,6.0,10.0,94,0.00,,,0.68,47,HR-IXPWINDi_r2_v1.2.,2013-08-15 13:45:00,
2013-08-15 08:51:00,59.9,58.1,30.04,North,360,3.0,10.0,94,0.00,,,0.68,35,HR-IXPWINDi_r2_v1.2.,2013-08-15 13:51:00,
2013-08-15 08:56:00,60.0,58.2,30.04,North,360,3.0,9.0,94,0.00,,,0.68,51,HR-IXPWINDi_r2_v1.2.,2013-08-15 13:56:00,
2013-08-15 09:01:00,60.0,58.2,30.04,SE,126,6.0,8.0,94,0.00,,,0.68,37,HR-IXPWINDi_r2_v1.2.,2013-08-15 14:01:00,
2013-08-15 09:06:00,59.9,58.1,30.04,North,360,3.0,10.0,94,0.00,,,0.68,37,HR-IXPWINDi_r2_v1.2.,2013-08-15 14:06:00,
2013-08-15 09:12:00,60.0,58.2,30.04,North,360,5.0,10.0,94,0.00,,,0.68,49,HR-IXPWINDi_r2_v1.2.,2013-08-15 14:12:00,
2013-08-15 09:17:00,60.0,58.2,30.04,North,360,3.0,10.0,94,0.00,,,0.68,35,HR-IXPWINDi_r2_v1.2.,2013-08-15 14:17:00,
2013-08-15 09:22:00,60.0,57.9,30.04,North,360,4.0,11.0,93,0.00,,,0.68,35,HR-IXPWINDi_r2_v1.2.,2013-08-15 14:22:00,
2013-08-15 09:27:00,60.1,58.0,30.04,North,360,5.0,13.0,93,0.00,,,0.68,44,HR-IXPWINDi_r2_v1.2.,2013-08-15 14:27:00,
2013-08-15 09:32:00,60.1,58.0,30.04,SSE,150,6.0,13.0,93,0.00,,,0.68,58,HR-IXPWINDi_r2_v1.2.,2013-08-15 14:32:00,
2013-08-15 09:37:00,60.2,58.1,30.03,ESE,117,2.0,10.0,93,0.00,,,0.68,58,HR-IXPWINDi_r2_v1.2.,2013-08-15 14:37:00,
2013-08-15 09:42:00,60.3,58.2,30.03,North,360,5.0,10.0,93,0.00,,,0.68,84,HR-IXPWINDi_r2_v1.2.,2013-08-15 14:42:00,
2013-08-15 09:47:00,60.5,58.4,30.03,ESE,121,5.0,11.0,93,0.00,,,0.68,111,HR-IXPWINDi_r2_v1.2.,2013-08-15 14:47:00,
2013-08-15 09:53:00,60.8,58.7,30.03,North,360,4.0,11.0,93,0.00,,,0.68,162,HR-IXPWINDi_r2_v1.2.,2013-08-15 14:53:00,
2013-08-15 09:58:00,60.9,58.5,30.03,East,94,7.0,11.0,92,0.00,,,0.69,69,HR-IXPWINDi_r2_v1.2.,2013-08-15 14:58:00,
2013-08-15 10:03:00,60.7,58.6,30.03,ENE,60,1.0,11.0,93,0.14,,,0.70,30,HR-IXPWINDi_r2_v1.2.,2013-08-15 15:03:00,
2013-08-15 10:08:00,60.6,58.5,30.03,North,360,2.0,10.0,93,0.07,,,0.70,25,HR-IXPWINDi_r2_v1.2.,2013-08-15 15:08:00,
2013-08-15 10:14:00,60.5,58.4,30.03,ESE,107,1.0,10.0,93,0.05,,,0.70,25,HR-IXPWINDi_r2_v1.2.,2013-08-15 15:14:00,
2013-08-15 10:19:00,60.5,58.4,30.04,SE,146,3.0,9.0,93,0.00,,,0.70,28,HR-IXPWINDi_r2_v1.2.,2013-08-15 15:19:00,
2013-08-15 10:24:00,60.4,58.3,30.04,East,81,5.0,12.0,93,0.00,,,0.70,44,HR-IXPWINDi_r2_v1.2.,2013-08-15 15:24:00,
2013-08-15 10:30:00,60.4,58.3,30.04,North,360,5.0,12.0,93,0.00,,,0.70,33,HR-IXPWINDi_r2_v1.2.,2013-08-15 15:30:00,
2013-08-15 10:35:00,60.4,58.3,30.04,ESE,121,3.0,12.0,93,0.00,,,0.70,58,HR-IXPWINDi_r2_v1.2.,2013-08-15 15:35:00,
2013-08-15 10:40:00,60.5,58.4,30.04,SE,128,2.0,12.0,93,0.00,,,0.70,60,HR-IXPWINDi_r2_v1.2.,2013-08-15 15:40:00,
2013-08-15 10:45:00,60.7,58.6,30.03,SSE,163,7.0,11.0,93,0.00,,,0.70,109,HR-IXPWINDi_r2_v1.2.,2013-08-15 15:45:00,
2013-08-15 10:50:00,60.8,58.7,30.03,North,360,4.0,11.0,93,0.00,,,0.70,148,HR-IXPWINDi_r2_v1.2.,2013-08-15 15:50:00,
2013-08-15 10:55:00,60.9,58.8,30.03,ESE,117,1.0,9.0,93,0.00,,,0.70,155,HR-IXPWINDi_r2_v1.2.,2013-08-15 15:55:00,
2013-08-15 11:01:00,61.1,59.3,30.03,North,360,5.0,9.0,94,0.00,,,0.70,149,HR-IXPWINDi_r2_v1.2.,2013-08-15 16:01:00,
2013-08-15 11:06:00,61.3,59.5,30.03,North,360,7.0,10.0,94,0.00,,,0.70,127,HR-IXPWINDi_r2_v1.2.,2013-08-15 16:06:00,
2013-08-15 11:11:00,61.4,59.3,30.03,North,360,4.0,12.0,93,0.00,,,0.70,141,HR-IXPWINDi_r2_v1.2.,2013-08-15 16:11:00,
2013-08-15 11:17:00,61.4,59.3,30.03,East,97,6.0,12.0,93,0.00,,,0.70,193,HR-IXPWINDi_r2_v1.2.,2013-08-15 16:17:00,
2013-08-15 11:22:00,61.9,59.5,30.03,North,360,5.0,12.0,92,0.00,,,0.70,174,HR-IXPWINDi_r2_v1.2.,2013-08-15 16:22:00,
2013-08-15 11:27:00,62.1,59.4,30.03,ESE,103,3.0,13.0,91,0.00,,,0.70,174,HR-IXPWINDi_r2_v1.2.,2013-08-15 16:27:00,
2013-08-15 11:32:00,62.2,59.5,30.03,NE,52,3.0,13.0,91,0.00,,,0.70,163,HR-IXPWINDi_r2_v1.2.,2013-08-15 16:32:00,
2013-08-15 11:37:00,62.4,59.7,30.02,SSE,167,0.0,11.0,91,0.00,,,0.70,230,HR-IXPWINDi_r2_v1.2.,2013-08-15 16:37:00,
2013-08-15 11:42:00,62.7,60.0,30.03,ESE,113,2.0,11.0,91,0.00,,,0.70,302,HR-IXPWINDi_r2_v1.2.,2013-08-15 16:42:00,
2013-08-15 11:47:00,63.6,60.2,30.03,NNW,331,3.0,11.0,89,0.00,,,0.70,288,HR-IXPWINDi_r2_v1.2.,2013-08-15 16:47:00,
2013-08-15 11:53:00,64.0,60.0,30.03,East,97,2.0,15.0,87,0.00,,,0.70,397,HR-IXPWINDi_r2_v1.2.,2013-08-15 16:53:00,
2013-08-15 11:58:00,64.4,60.4,30.02,SE,131,2.0,15.0,87,0.00,,,0.70,306,HR-IXPWINDi_r2_v1.2.,2013-08-15 16:58:00,
2013-08-15 12:03:00,64.3,60.0,30.02,South,172,6.0,13.0,86,0.00,,,0.70,404,HR-IXPWINDi_r2_v1.2.,2013-08-15 17:03:00,
2013-08-15 12:08:00,65.1,60.4,30.02,ENE,65,3.0,13.0,85,0.00,,,0.70,464,HR-IXPWINDi_r2_v1.2.,2013-08-15 17:08:00,
2013-08-15 12:14:00,65.6,60.6,30.01,NW,306,5.0,13.0,84,0.00,,,0.70,547,HR-IXPWINDi_r2_v1.2.,2013-08-15 17:14:00,
2013-08-15 12:19:00,66.0,60.6,30.01,ESE,108,3.0,13.0,83,0.00,,,0.70,381,HR-IXPWINDi_r2_v1.2.,2013-08-15 17:19:00,
2013-08-15 12:24:00,66.3,60.9,30.01,SW,217,1.0,13.0,83,0.00,,,0.70,406,HR-IXPWINDi_r2_v1.2.,2013-08-15 17:24:00,
2013-08-15 12:29:00,66.9,60.8,30.01,East,99,2.0,11.0,81,0.00,,,0.70,329,HR-IXPWINDi_r2_v1.2.,2013-08-15 17:29:00,
2013-08-15 12:34:00,67.2,61.1,30.01,North,360,1.0,13.0,81,0.00,,,0.70,385,HR-IXPWINDi_r2_v1.2.,2013-08-15 17:34:00,
2013-08-15 12:40:00,67.3,61.2,30.01,SSE,149,2.0,13.0,81,0.00,,,0.70,283,HR-IXPWINDi_r2_v1.2.,2013-08-15 17:40:00,
2013-08-15 12:45:00,67.0,60.6,30.01,West,273,8.0,11.0,80,0.00,,,0.70,338,HR-IXPWINDi_r2_v1.2.,2013-08-15 17:45:00,
2013-08-15 12:50:00,67.3,60.9,30.00,South,170,3.0,11.0,80,0.00,,,0.70,441,HR-IXPWINDi_r2_v1.2.,2013-08-15 17:50:00,
2013-08-15 12:56:00,67.4,60.6,30.00,ESE,115,10.0,17.0,79,0.00,,,0.70,341,HR-IXPWINDi_r2_v1.2.,2013-08-15 17:56:00,
2013-08-15 13:01:00,67.5,60.7,30.00,South,175,5.0,17.0,79,0.00,,,0.70,462,HR-IXPWINDi_r2_v1.2.,2013-08-15 18:01:00,
2013-08-15 13:06:00,67.9,61.1,30.00,South,189,4.0,12.0,79,0.00,,,0.70,345,HR-IXPWINDi_r2_v1.2.,2013-08-15 18:06:00,
2013-08-15 13:11:00,68.1,60.9,30.00,SE,128,2.0,11.0,78,0.00,,,0.70,318,HR-IXPWINDi_r2_v1.2.,2013-08-15 18:11:00,
2013-08-15 13:16:00,67.4,60.2,30.00,SE,144,2.0,11.0,78,0.00,,,0.70,295,HR-IXPWINDi_r2_v1.2.,2013-08-15 18:16:00,
2013-08-15 13:21:00,67.4,60.6,30.00,ESE,116,1.0,11.0,79,0.00,,,0.70,281,HR-IXPWINDi_r2_v1.2.,2013-08-15 18:21:00,
2013-08-15 13:26:00,67.7,60.5,30.00,SSW,192,2.0,9.0,78,0.00,,,0.70,287,HR-IXPWINDi_r2_v1.2.,2013-08-15 18:26:00,
2013-08-15 13:32:00,67.4,60.2,30.00,ESE,110,3.0,9.0,78,0.00,,,0.70,304,HR-IXPWINDi_r2_v1.2.,2013-08-15 18:32:00,
2013-08-15 13:37:00,66.8,60.0,30.00,WNW,292,3.0,10.0,79,0.00,,,0.70,346,HR-IXPWINDi_r2_v1.2.,2013-08-15 18:37:00,
2013-08-15 13:42:00,66.8,60.4,30.00,SE,136,6.0,12.0,80,0.00,,,0.70,336,HR-IXPWINDi_r2_v1.2.,2013-08-15 18:42:00,
2013-08-15 13:47:00,67.0,60.2,30.00,East,98,2.0,13.0,79,0.00,,,0.70,371,HR-IXPWINDi_r2_v1.2.,2013-08-15 18:47:00,
2013-08-15 13:54:00,67.7,60.5,30.00,SSE,149,1.0,13.0,78,0.00,,,0.70,374,HR-IXPWINDi_r2_v1.2.,2013-08-15 18:54:00,
2013-08-15 13:59:00,67.9,60.4,30.00,ENE,78,3.0,11.0,77,0.00,,,0.70,262,HR-IXPWINDi_r2_v1.2.,2013-08-15 18:59:00,
2013-08-15 14:04:00,67.7,60.2,30.01,NNE,32,4.0,9.0,77,0.00,,,0.70,258,HR-IXPWINDi_r2_v1.2.,2013-08-15 19:04:00,
2013-08-15 14:09:00,67.0,59.9,30.01,WSW,252,2.0,12.0,78,0.00,,,0.70,223,HR-IXPWINDi_r2_v1.2.,2013-08-15 19:09:00,
2013-08-15 14:15:00,66.8,60.0,30.00,East,98,2.0,12.0,79,0.00,,,0.70,299,HR-IXPWINDi_r2_v1.2.,2013-08-15 19:15:00,
2013-08-15 14:21:00,66.8,60.0,30.00,SSE,148,2.0,10.0,79,0.00,,,0.70,209,HR-IXPWINDi_r2_v1.2.,2013-08-15 19:21:00,
2013-08-15 14:26:00,66.7,59.6,30.00,NE,47,3.0,10.0,78,0.00,,,0.70,218,HR-IXPWINDi_r2_v1.2.,2013-08-15 19:26:00,
2013-08-15 14:32:00,66.2,59.8,30.01,ENE,76,2.0,10.0,80,0.00,,,0.70,160,HR-IXPWINDi_r2_v1.2.,2013-08-15 19:32:00,
2013-08-15 14:37:00,66.0,59.6,30.01,SW,229,0.0,7.0,80,0.00,,,0.70,169,HR-IXPWINDi_r2_v1.2.,2013-08-15 19:37:00,
2013-08-15 14:42:00,65.9,59.5,30.01,NE,52,1.0,9.0,80,0.00,,,0.70,165,HR-IXPWINDi_r2_v1.2.,2013-08-15 19:42:00,
2013-08-15 14:47:00,65.6,59.5,30.01,SE,145,3.0,9.0,81,0.00,,,0.70,142,HR-IXPWINDi_r2_v1.2.,2013-08-15 19:47:00,
2013-08-15 14:52:00,65.3,59.3,30.01,ENE,64,3.0,7.0,81,0.00,,,0.70,144,HR-IXPWINDi_r2_v1.2.,2013-08-15 19:52:00,
2013-08-15 14:57:00,65.1,59.4,30.01,East,82,7.0,10.0,82,0.00,,,0.70,141,HR-IXPWINDi_r2_v1.2.,2013-08-15 19:57:00,
2013-08-15 15:02:00,64.9,59.2,30.01,East,89,0.0,10.0,82,0.00,,,0.70,160,HR-IXPWINDi_r2_v1.2.,2013-08-15 20:02:00,
2013-08-15 15:07:00,65.2,59.5,30.01,ESE,111,2.0,10.0,82,0.00,,,0.70,229,HR-IXPWINDi_r2_v1.2.,2013-08-15 20:07:00,
2013-08-15 15:12:00,65.4,59.4,30.00,East,88,6.0,8.0,81,0.00,,,0.70,253,HR-IXPWINDi_r2_v1.2.,2013-08-15 20:12:00,
2013-08-15 15:18:00,65.5,59.5,30.00,East,92,2.0,13.0,81,0.00,,,0.70,251,HR-IXPWINDi_r2_v1.2.,2013-08-15 20:18:00,
2013-08-15 15:23:00,65.8,59.4,30.00,SE,138,2.0,13.0,80,0.00,,,0.70,227,HR-IXPWINDi_r2_v1.2.,2013-08-15 20:23:00,
2013-08-15 15:28:00,65.8,59.7,30.00,East,81,6.0,10.0,81,0.00,,,0.70,211,HR-IXPWINDi_r2_v1.2.,2013-08-15 20:28:00,
2013-08-15 15:33:00,65.5,59.1,30.00,ENE,70,3.0,10.0,80,0.00,,,0.70,209,HR-IXPWINDi_r2_v1.2.,2013-08-15 20:33:00,
2013-08-15 15:38:00,65.5,59.5,30.00,North,360,4.0,10.0,81,0.00,,,0.70,195,HR-IXPWINDi_r2_v1.2.,2013-08-15 20:38:00,
2013-08-15 15:43:00,65.3,59.3,30.00,East,101,3.0,9.0,81,0.00,,,0.70,172,HR-IXPWINDi_r2_v1.2.,2013-08-15 20:43:00,
2013-08-15 15:48:00,65.5,59.5,30.00,East,92,2.0,8.0,81,0.00,,,0.70,167,HR-IXPWINDi_r2_v1.2.,2013-08-15 20:48:00,
2013-08-15 15:53:00,65.2,59.2,30.00,North,360,4.0,7.0,81,0.00,,,0.70,186,HR-IXPWINDi_r2_v1.2.,2013-08-15 20:53:00,
2013-08-15 15:58:00,65.5,59.8,30.00,North,360,1.0,8.0,82,0.00,,,0.70,192,HR-IXPWINDi_r2_v1.2.,2013-08-15 20:58:00,
2013-08-15 16:04:00,65.9,59.5,30.00,North,360,4.0,8.0,80,0.00,,,0.70,167,HR-IXPWINDi_r2_v1.2.,2013-08-15 21:04:00,
2013-08-15 16:09:00,65.5,59.5,30.00,North,360,4.0,6.0,81,0.00,,,0.70,120,HR-IXPWINDi_r2_v1.2.,2013-08-15 21:09:00,
2013-08-15 16:14:00,65.4,59.4,30.00,North,360,4.0,10.0,81,0.00,,,0.70,130,HR-IXPWINDi_r2_v1.2.,2013-08-15 21:14:00,
2013-08-15 16:19:00,65.4,59.4,30.00,North,360,3.0,10.0,81,0.00,,,0.70,160,HR-IXPWINDi_r2_v1.2.,2013-08-15 21:19:00,
2013-08-15 16:25:00,65.6,59.5,30.00,North,360,1.0,8.0,81,0.00,,,0.70,148,HR-IXPWINDi_r2_v1.2.,2013-08-15 21:25:00,
2013-08-15 16:30:00,65.7,59.6,30.00,North,360,4.0,8.0,81,0.00,,,0.70,204,HR-IXPWINDi_r2_v1.2.,2013-08-15 21:30:00,
2013-08-15 16:36:00,65.8,59.4,29.99,North,360,5.0,9.0,80,0.00,,,0.70,211,HR-IXPWINDi_r2_v1.2.,2013-08-15 21:36:00,
2013-08-15 16:41:00,66.0,59.6,29.99,North,360,3.0,9.0,80,0.00,,,0.70,204,HR-IXPWINDi_r2_v1.2.,2013-08-15 21:41:00,
2013-08-15 16:46:00,65.9,59.1,30.00,North,360,6.0,8.0,79,0.00,,,0.70,156,HR-IXPWINDi_r2_v1.2.,2013-08-15 21:46:00,
2013-08-15 16:51:00,65.5,59.5,30.00,North,360,4.0,8.0,81,0.00,,,0.70,185,HR-IXPWINDi_r2_v1.2.,2013-08-15 21:51:00,
2013-08-15 16:56:00,65.7,59.3,30.00,North,360,2.0,7.0,80,0.00,,,0.70,183,HR-IXPWINDi_r2_v1.2.,2013-08-15 21:56:00,
2013-08-15 17:02:00,65.9,59.1,30.00,North,360,4.0,8.0,79,0.00,,,0.70,192,HR-IXPWINDi_r2_v1.2.,2013-08-15 22:02:00,
2013-08-15 17:07:00,65.4,59.0,30.00,North,360,4.0,8.0,80,0.00,,,0.70,178,HR-IXPWINDi_r2_v1.2.,2013-08-15 22:07:00,
2013-08-15 17:12:00,65.6,58.8,30.00,North,360,3.0,9.0,79,0.00,,,0.70,149,HR-IXPWINDi_r2_v1.2.,2013-08-15 22:12:00,
2013-08-15 17:17:00,65.4,59.0,30.00,North,360,1.0,9.0,80,0.00,,,0.70,165,HR-IXPWINDi_r2_v1.2.,2013-08-15 22:17:00,
2013-08-15 17:23:00,65.7,59.3,30.00,North,360,3.0,7.0,80,0.00,,,0.70,178,HR-IXPWINDi_r2_v1.2.,2013-08-15 22:23:00,
2013-08-15 17:28:00,65.9,59.1,30.00,East,82,6.0,7.0,79,0.00,,,0.70,163,HR-IXPWINDi_r2_v1.2.,2013-08-15 22:28:00,
2013-08-15 17:33:00,65.7,58.9,29.99,North,360,3.0,8.0,79,0.00,,,0.70,142,HR-IXPWINDi_r2_v1.2.,2013-08-15 22:33:00,
2013-08-15 17:38:00,65.4,58.7,30.00,North,360,4.0,8.0,79,0.00,,,0.70,134,HR-IXPWINDi_r2_v1.2.,2013-08-15 22:38:00,
2013-08-15 17:44:00,65.3,58.9,30.00,North,360,4.0,8.0,80,0.00,,,0.70,111,HR-IXPWINDi_r2_v1.2.,2013-08-15 22:44:00,
2013-08-15 17:49:00,64.9,58.5,29.99,North,360,5.0,7.0,80,0.00,,,0.70,93,HR-IXPWINDi_r2_v1.2.,2013-08-15 22:49:00,
2013-08-15 17:54:00,64.7,58.7,29.99,North,360,4.0,7.0,81,0.00,,,0.70,90,HR-IXPWINDi_r2_v1.2.,2013-08-15 22:54:00,
2013-08-15 17:59:00,64.6,58.6,29.99,North,360,3.0,7.0,81,0.00,,,0.70,63,HR-IXPWINDi_r2_v1.2.,2013-08-15 22:59:00,
2013-08-15 18:05:00,64.4,58.4,30.00,North,360,3.0,6.0,81,0.00,,,0.70,49,HR-IXPWINDi_r2_v1.2.,2013-08-15 23:05:00,
2013-08-15 18:10:00,64.4,58.4,30.00,North,360,2.0,6.0,81,0.00,,,0.70,44,HR-IXPWINDi_r2_v1.2.,2013-08-15 23:10:00,
2013-08-15 18:15:00,64.4,58.4,30.00,North,360,4.0,6.0,81,0.00,,,0.70,56,HR-IXPWINDi_r2_v1.2.,2013-08-15 23:15:00,
2013-08-15 18:20:00,64.3,58.6,30.00,North,360,3.0,7.0,82,0.00,,,0.70,51,HR-IXPWINDi_r2_v1.2.,2013-08-15 23:20:00,
2013-08-15 18:25:00,64.2,58.5,30.01,North,360,5.0,8.0,82,0.00,,,0.70,40,HR-IXPWINDi_r2_v1.2.,2013-08-15 23:25:00,
2013-08-15 18:31:00,64.0,58.3,30.01,North,360,5.0,8.0,82,0.00,,,0.70,23,HR-IXPWINDi_r2_v1.2.,2013-08-15 23:31:00,
2013-08-15 18:36:00,63.9,58.2,30.01,North,360,4.0,7.0,82,0.00,,,0.70,14,HR-IXPWINDi_r2_v1.2.,2013-08-15 23:36:00,
2013-08-15 18:42:00,63.8,58.1,30.01,North,360,4.0,6.0,82,0.00,,,0.70,16,HR-IXPWINDi_r2_v1.2.,2013-08-15 23:42:00,
2013-08-15 18:47:00,63.8,58.5,30.01,North,360,2.0,6.0,83,0.00,,,0.70,25,HR-IXPWINDi_r2_v1.2.,2013-08-15 23:47:00,
2013-08-15 18:52:00,63.6,58.3,30.01,North,360,3.0,9.0,83,0.00,,,0.70,21,HR-IXPWINDi_r2_v1.2.,2013-08-15 23:52:00,
2013-08-15 18:57:00,63.5,58.2,30.01,North,360,3.0,9.0,83,0.00,,,0.70,16,HR-IXPWINDi_r2_v1.2.,2013-08-15 23:57:00,
2013-08-15 19:03:00,63.6,58.3,30.01,North,360,2.0,8.0,83,0.00,,,0.70,14,HR-IXPWINDi_r2_v1.2.,2013-08-16 00:03:00,
2013-08-15 19:08:00,63.6,58.3,30.02,North,360,4.0,6.0,83,0.00,,,0.70,11,HR-IXPWINDi_r2_v1.2.,2013-08-16 00:08:00,
2013-08-15 19:13:00,63.6,58.3,30.02,North,360,2.0,5.0,83,0.00,,,0.70,12,HR-IXPWINDi_r2_v1.2.,2013-08-16 00:13:00,
2013-08-15 19:18:00,63.5,58.2,30.02,North,360,3.0,6.0,83,0.00,,,0.70,12,HR-IXPWINDi_r2_v1.2.,2013-08-16 00:18:00,
2013-08-15 19:24:00,63.5,58.2,30.02,North,360,2.0,6.0,83,0.00,,,0.70,12,HR-IXPWINDi_r2_v1.2.,2013-08-16 00:24:00,
2013-08-15 19:29:00,63.6,58.3,30.02,North,360,4.0,6.0,83,0.00,,,0.70,16,HR-IXPWINDi_r2_v1.2.,2013-08-16 00:29:00,
2013-08-15 19:34:00,63.6,58.3,30.02,North,360,2.0,5.0,83,0.00,,,0.70,11,HR-IXPWINDi_r2_v1.2.,2013-08-16 00:34:00,
2013-08-15 19:39:00,63.7,58.4,30.03,North,360,3.0,5.0,83,0.00,,,0.70,5,HR-IXPWINDi_r2_v1.2.,2013-08-16 00:39:00,
2013-08-15 19:45:00,63.7,58.4,30.03,North,360,2.0,5.0,83,0.00,,,0.70,5,HR-IXPWINDi_r2_v1.2.,2013-08-16 00:45:00,
2013-08-15 19:50:00,63.7,58.4,30.02,North,360,2.0,4.0,83,0.00,,,0.70,5,HR-IXPWINDi_r2_v1.2.,2013-08-16 00:50:00,
2013-08-15 19:55:00,63.7,58.7,30.02,North,360,1.0,5.0,84,0.00,,,0.70,5,HR-IXPWINDi_r2_v1.2.,2013-08-16 00:55:00,
2013-08-15 20:00:00,63.6,58.6,30.02,North,360,1.0,5.0,84,0.00,,,0.70,0,HR-IXPWINDi_r2_v1.2.,2013-08-16 01:00:00,
2013-08-15 20:05:00,63.5,58.8,30.03,North,360,3.0,4.0,85,0.00,,,0.70,0,HR-IXPWINDi_r2_v1.2.,2013-08-16 01:05:00,
2013-08-15 20:11:00,63.4,58.7,30.03,North,360,2.0,5.0,85,0.00,,,0.70,0,HR-IXPWINDi_r2_v1.2.,2013-08-16 01:11:00,
2013-08-15 20:16:00,63.3,59.0,30.03,North,360,4.0,5.0,86,0.00,,,0.70,0,HR-IXPWINDi_r2_v1.2.,2013-08-16 01:16:00,
2013-08-15 20:21:00,63.2,58.9,30.03,North,360,3.0,5.0,86,0.00,,,0.70,0,HR-IXPWINDi_r2_v1.2.,2013-08-16 01:21:00,
2013-08-15 20:26:00,63.0,58.7,30.03,North,360,2.0,5.0,86,0.00,,,0.70,0,HR-IXPWINDi_r2_v1.2.,2013-08-16 01:26:00,
2013-08-15 20:34:00,62.8,58.8,30.04,North,360,3.0,4.0,87,0.00,,,0.70,0,HR-IXPWINDi_r2_v1.2.,2013-08-16 01:34:00,
2013-08-15 20:39:00,62.7,58.7,30.04,North,360,2.0,5.0,87,0.00,,,0.70,0,HR-IXPWINDi_r2_v1.2.,2013-08-16 01:39:00,
2013-08-15 20:44:00,62.6,58.9,30.04,North,360,4.0,5.0,88,0.00,,,0.70,0,HR-IXPWINDi_r2_v1.2.,2013-08-16 01:44:00,
2013-08-15 20:49:00,62.6,58.9,30.04,North,360,1.0,5.0,88,0.00,,,0.70,0,HR-IXPWINDi_r2_v1.2.,2013-08-16 01:49:00,
2013-08-15 20:54:00,62.6,58.9,30.04,North,360,3.0,4.0,88,0.00,,,0.70,0,HR-IXPWINDi_r2_v1.2.,2013-08-16 01:54:00,
2013-08-15 21:00:00,62.7,59.0,30.04,North,360,2.0,4.0,88,0.00,,,0.70,0,HR-IXPWINDi_r2_v1.2.,2013-08-16 02:00:00,
2013-08-15 21:05:00,62.7,59.0,30.04,North,360,3.0,5.0,88,0.00,,,0.70,0,HR-IXPWINDi_r2_v1.2.,2013-08-16 02:05:00,
2013-08-15 21:10:00,62.7,59.3,30.04,North,360,5.0,5.0,89,0.00,,,0.70,0,HR-IXPWINDi_r2_v1.2.,2013-08-16 02:10:00,
2013-08-15 21:15:00,62.8,59.4,30.04,North,360,2.0,5.0,89,0.00,,,0.70,0,HR-IXPWINDi_r2_v1.2.,2013-08-16 02:15:00,
2013-08-15 21:20:00,62.7,59.3,30.05,NE,49,2.0,5.0,89,0.00,,,0.70,0,HR-IXPWINDi_r2_v1.2.,2013-08-16 02:20:00,
2013-08-15 21:25:00,62.7,59.3,30.05,North,360,4.0,5.0,89,0.00,,,0.70,0,HR-IXPWINDi_r2_v1.2.,2013-08-16 02:25:00,
2013-08-15 21:31:00,62.7,59.3,30.05,North,360,2.0,5.0,89,0.00,,,0.70,0,HR-IXPWINDi_r2_v1.2.,2013-08-16 02:31:00,
2013-08-15 21:36:00,62.7,59.7,30.06,North,360,2.0,5.0,90,0.00,,,0.70,0,HR-IXPWINDi_r2_v1.2.,2013-08-16 02:36:00,
2013-08-15 21:41:00,62.7,59.7,30.06,North,360,3.0,5.0,90,0.00,,,0.70,0,HR-IXPWINDi_r2_v1.2.,2013-08-16 02:41:00,
2013-08-15 21:46:00,62.6,59.6,30.06,NE,47,1.0,4.0,90,0.00,,,0.70,0,HR-IXPWINDi_r2_v1.2.,2013-08-16 02:46:00,
2013-08-15 21:51:00,62.6,59.6,30.06,North,360,3.0,4.0,90,0.00,,,0.70,0,HR-IXPWINDi_r2_v1.2.,2013-08-16 02:51:00,
2013-08-15 21:57:00,62.5,59.5,30.06,North,360,1.0,5.0,90,0.00,,,0.70,0,HR-IXPWINDi_r2_v1.2.,2013-08-16 02:57:00,
2013-08-15 22:02:00,62.5,59.5,30.07,North,360,1.0,5.0,90,0.00,,,0.70,0,HR-IXPWINDi_r2_v1.2.,2013-08-16 03:02:00,
2013-08-15 22:07:00,62.5,59.5,30.07,North,360,2.0,5.0,90,0.00,,,0.70,0,HR-IXPWINDi_r2_v1.2.,2013-08-16 03:07:00,
2013-08-15 22:12:00,62.5,59.5,30.07,North,360,2.0,4.0,90,0.00,,,0.70,0,HR-IXPWINDi_r2_v1.2.,2013-08-16 03:12:00,
2013-08-15 22:17:00,62.4,59.4,30.07,North,360,2.0,5.0,90,0.00,,,0.70,0,HR-IXPWINDi_r2_v1.2.,2013-08-16 03:17:00,
2013-08-15 22:23:00,62.4,59.4,30.07,North,360,2.0,5.0,90,0.00,,,0.70,0,HR-IXPWINDi_r2_v1.2.,2013-08-16 03:23:00,
2013-08-15 22:28:00,62.4,59.7,30.07,North,360,2.0,5.0,91,0.00,,,0.70,0,HR-IXPWINDi_r2_v1.2.,2013-08-16 03:28:00,
2013-08-15 22:33:00,62.4,59.7,30.07,North,360,2.0,4.0,91,0.00,,,0.70,0,HR-IXPWINDi_r2_v1.2.,2013-08-16 03:33:00,
2013-08-15 22:38:00,62.4,59.7,30.07,North,360,0.0,5.0,91,0.00,,,0.70,0,HR-IXPWINDi_r2_v1.2.,2013-08-16 03:38:00,
2013-08-15 22:43:00,62.3,59.6,30.07,North,360,1.0,5.0,91,0.00,,,0.70,0,HR-IXPWINDi_r2_v1.2.,2013-08-16 03:43:00,
2013-08-15 22:49:00,62.3,59.6,30.06,North,360,4.0,4.0,91,0.00,,,0.70,0,HR-IXPWINDi_r2_v1.2.,2013-08-16 03:49:00,
2013-08-15 22:54:00,62.1,59.7,30.06,North,360,2.0,4.0,92,0.00,,,0.70,0,HR-IXPWINDi_r2_v1.2.,2013-08-16 03:54:00,
2013-08-15 22:59:00,62.0,59.6,30.06,North,360,6.0,6.0,92,0.00,,,0.70,0,HR-IXPWINDi_r2_v1.2.,2013-08-16 03:59:00,
2013-08-15 23:01:00,62.0,59.6,30.06,North,360,2.0,6.0,92,0.00,,,0.70,0,HR-IXPWINDi_r2_v1.2.,2013-08-16 04:01:00,
2013-08-15 23:06:00,61.9,59.5,30.06,North,360,2.0,6.0,92,0.00,,,0.70,0,HR-IXPWINDi_r2_v1.2.,2013-08-16 04:06:00,
2013-08-15 23:11:00,61.9,59.5,30.07,North,360,3.0,5.0,92,0.00,,,0.70,0,HR-IXPWINDi_r2_v1.2.,2013-08-16 04:11:00,
2013-08-15 23:16:00,61.9,59.5,30.06,North,360,1.0,5.0,92,0.00,,,0.70,0,HR-IXPWINDi_r2_v1.2.,2013-08-16 04:16:00,
2013-08-15 23:21:00,61.9,59.5,30.06,North,360,2.0,4.0,92,0.00,,,0.70,0,HR-IXPWINDi_r2_v1.2.,2013-08-16 04:21:00,
2013-08-15 23:27:00,61.8,59.4,30.06,North,360,1.0,3.0,92,0.00,,,0.70,0,HR-IXPWINDi_r2_v1.2.,2013-08-16 04:27:00,
2013-08-15 23:32:00,61.9,59.5,30.06,North,360,3.0,4.0,92,0.00,,,0.70,0,HR-IXPWINDi_r2_v1.2.,2013-08-16 04:32:00,
2013-08-15 23:37:00,61.9,59.5,30.07,North,360,3.0,4.0,92,0.00,,,0.70,0,HR-IXPWINDi_r2_v1.2.,2013-08-16 04:37:00,
2013-08-15 23:42:00,61.9,59.5,30.07,North,360,0.0,4.0,92,0.00,,,0.70,0,HR-IXPWINDi_r2_v1.2.,2013-08-16 04:42:00,
2013-08-15 23:47:00,62.0,59.6,30.07,North,360,1.0,4.0,92,0.00,,,0.70,0,HR-IXPWINDi_r2_v1.2.,2013-08-16 04:47:00,
2013-08-15 23:52:00,62.0,59.6,30.07,North,360,1.0,3.0,92,0.00,,,0.70,0,HR-IXPWINDi_r2_v1.2.,2013-08-16 04:52:00,
2013-08-15 23:58:00,62.0,59.6,30.07,North,360,1.0,3.0,92,0.00,,,0.70,0,HR-IXPWINDi_r2_v1.2.,2013-08-16 04:58:00,